Location: Unspecified
(47.0333°N, 0.0000°E)
Time: 20:57:13
(UTC+00:00)

OTV 5 (USA 277) - Pass Details

Date: 16 June 2019
Orbit: 305 x 329 km, 54.5° (Epoch: 20 August)

Event Time Altitude Azimuth Distance (km) Brightness Sun altitude
Exits shadow 23:53:05 22° 70° (ENE) 771 ? -19.6°
Drops below altitude 10° 23:54:17 10° 63° (ENE) 1,251 ? -19.6°
Enters shadow 00:53:13 -62° 244° (WSW) 11,573 ? -18.6°
